Home > Weather > Laredo > Past weeks

Flag for USA Weather for the Past 2 Weeks in Laredo, Texas, USA

Now
74 °F

Overcast.


Feels Like: 76 °F
Forecast: 66 / 76 °F
Wind: 13 mph from North

Location: Laredo International Airport

Current Time: May 2, 2016 at 4:23:17 AM

Latest Report: May 2, 2016 at 2:56 AM


Visibility: 10 mi

Pressure: 29.92 "Hg

Humidity: 64%

Dew Point: 61 °F

Location of LaredoLocation

Historic Weather in Laredo — Graph

°F

Laredo Temperature Yesterday

Maximum temperature yesterday: 95 °F (at 4:56 PM)
Minimum temperature yesterday: 74 °F (at 1:56 AM)
Average temperature yesterday: 82 °F

High & Low Weather Summary for the Past Weeks

 TemperatureHumidityPressure
High101 °F (Apr 25, 4:56 PM)97% (Apr 18, 5:56 AM)30.12 "Hg (Apr 18, 5:56 AM)
Low63 °F (Apr 24, 12:56 AM)14% (Apr 27, 4:56 PM)29.52 "Hg (Apr 26, 7:56 PM)
Average80 °F66%29.82 "Hg
* Reported Apr 17 2:56 AM — May 2 2:56 AM, Laredo, Weather by CustomWeather, © 2016

Note: Actual official high and low records may vary slightly from our data, if they occured in-between our weather recording intervals... More about our weather records

Advertising

Laredo Weather History for the Previous 24 Hours

Scroll right to see more
 ConditionsComfort  
Time TempWeatherWind HumidityBarometerVisibility
2:56 AM
Mon, May 2
74 °FOvercast.13 mph64%29.92 "Hg10 mi
1:56 AM75 °FOvercast.12 mph66%29.90 "Hg10 mi
11:56 PM
Sun, May 1
77 °FClear.17 mph69%29.88 "Hg10 mi
10:56 PM79 °FPassing clouds.18 mph69%29.88 "Hg10 mi
9:56 PM81 °FClear.21 mph67%29.83 "Hg10 mi
8:56 PM83 °FPartly sunny.20 mph63%29.80 "Hg10 mi
7:56 PM86 °FSunny.20 mph61%29.75 "Hg10 mi
6:56 PM90 °FPartly sunny.21 mph54%29.71 "Hg10 mi
5:56 PM95 °FPassing clouds.7 mph41%29.70 "Hg10 mi
4:56 PM95 °FSunny.9 mph41%29.70 "Hg10 mi
3:56 PM93 °FPassing clouds.8 mph44%29.72 "Hg10 mi
2:56 PM92 °FPassing clouds.No wind47%29.75 "Hg10 mi
1:56 PM90 °FPartly sunny.9 mph52%29.77 "Hg10 mi
12:56 PM88 °FPassing clouds.No wind57%29.79 "Hg10 mi
11:56 AM85 °FPartly sunny.6 mph61%29.82 "Hg9 mi
10:56 AM83 °FMostly cloudy.9 mph68%29.83 "Hg10 mi
9:56 AM80 °FOvercast.7 mph74%29.82 "Hg8 mi
8:56 AM77 °FOvercast.8 mph82%29.81 "Hg7 mi
7:56 AM76 °FOvercast.8 mph85%29.79 "Hg6 mi
6:56 AM74 °FOvercast.6 mph88%29.76 "Hg6 mi
5:56 AM76 °FOvercast.5 mph85%29.75 "Hg7 mi
4:56 AM75 °FPassing clouds.5 mph88%29.74 "Hg6 mi
Weather by CustomWeather, © 2016

See weather overviewHow to use our weather pages